Wind_Speed
6 6 8 9 11 11 10 10 9 9 9 8 7 7 7 8 8 8 7 6 5 7 7 4 4 6 5 8 12 9 9 8 7 10 8 5 8 17 23 25 27 28 28 23 15
5 7 8 9 9 8 7 6 7 7 6 6 7 8 8 8 9 9 7 6 7 6 6 5 5 7 11 15 13 13 11 4 11 4 6 3 6 13 22 17 24 21 27 26 20
6 7 7 7 7 5 4 5 5 5 5 6 7 7 8 8 8 7 7 7 7 6 5 4 7 10 16 14 14 16 8 10 10 10 12 12 14 20 27 18 23 24 30 33 35
6 4 4 5 4 2 3 5 5 6 6 7 7 8 9 8 8 8 7 6 6 5 3 3 2 9 14 16 16 14 9 11 7 11 8 4 6 21 21 23 26 26 28 33 38
2 2 3 2 0 2 4 6 7 7 7 8 9 11 8 6 6 7 7 5 4 2 1 1 1 4 9 13 11 6 5 5 7 10 2 6 13 18 22 26 23 27 31 36 39
1 2 2 2 3 5 6 7 7 8 8 8 9 9 5 4 5 7 7 5 3 1 1 2 2 1 1 1 2 6 8 10 10 7 5 10 16 23 24 18 19 27 32 35 40
1 2 2 3 5 6 7 8 8 7 7 7 7 6 6 3 5 5 5 4 2 2 3 4 5 5 6 13 15 15 12 11 7 3 9 18 22 31 24 22 26 33 41 39 37
2 1 2 3 5 7 7 8 8 8 7 6 5 5 6 7 4 5 4 4 2 2 6 6 7 7 11 11 11 11 4 5 3 5 8 20 27 31 27 27 35 40 42 39 37
3 3 3 4 5 6 7 7 6 6 5 5 5 5 6 7 4 5 6 7 4 2 2 4 6 7 8 9 9 8 3 2 5 4 13 21 28 28 27 29 39 39 37 37 39
5 5 4 4 5 5 5 5 5 4 4 4 5 2 4 7 5 5 4 2 5 5 5 7 9 7 6 3 2 5 3 4 3 12 19 22 26 29 31 33 36 37 38 40 43
5 4 4 4 4 4 4 4 5 4 4 5 4 3 2 4 5 6 4 3 5 8 9 10 9 6 4 3 6 4 12 14 12 15 23 24 29 35 39 44 46 41 40 38 40
6 5 5 5 4 4 4 3 3 3 4 4 3 2 2 4 3 3 6 4 7 12 13 10 6 2 9 13 18 12 16 21 24 18 22 26 33 39 43 46 46 44 42 41 44
6 6 6 6 5 5 4 4 5 4 5 3 2 3 5 5 4 7 8 7 12 15 14 6 4 7 13 15 19 21 17 17 22 28 32 34 39 43 42 36 35 40 39 41 45
6 6 6 5 5 5 5 4 3 7 6 6 5 3 1 2 4 6 4 3 6 6 7 12 11 13 15 16 18 15 17 10 13 21 24 29 37 34 33 36 38 37 42 48 35
3 5 5 6 5 4 3 3 5 6 12 6 5 2 2 1 2 1 1 2 5 2 15 15 16 15 19 21 21 18 25 19 21 16 17 25 30 33 36 38 35 39 41 41 52
4 5 5 4 4 5 5 3 5 6 6 6 2 5 3 5 3 5 3 6 7 7 13 21 21 16 17 18 18 23 22 21 27 25 22 24 30 33 31 33 36 39 42 46 47
5 6 6 5 5 6 6 6 6 6 5 1 3 5 5 5 3 7 6 9 9 9 12 19 21 16 19 21 25 28 29 34 29 18 10 22 32 38 38 41 39 39 43 41 41
7 7 7 8 8 5 7 11 12 10 9 6 3 5 6 4 9 14 17 13 13 6 9 15 20 18 24 25 30 29 34 37 38 37 33 30 31 34 37 36 41 48 48 47 49
9 9 10 9 9 7 8 14 13 13 10 10 12 12 13 9 11 21 20 21 16 12 10 17 21 23 30 30 34 35 37 40 39 36 36 37 30 26 28 37 38 38 40 42 44
11 11 12 12 12 11 11 19 17 15 15 13 14 17 17 20 19 23 26 23 19 18 17 19 18 24 24 27 31 35 43 38 38 38 34 34 28 28 31 35 27 37 42 39 35
12 14 14 14 14 15 17 21 20 15 12 17 18 18 19 22 21 21 21 23 25 25 27 27 28 29 31 34 38 35 33 36 35 30 32 32 28 26 33 29 33 39 39 45 36
16 18 15 16 17 19 22 22 19 12 11 11 17 20 23 21 28 27 28 27 32 33 34 32 34 33 25 26 27 28 30 31 31 29 36 33 34 40 32 32 35 36 37 39 37
17 16 17 18 17 17 20 19 16 14 13 12 16 16 17 20 22 30 30 30 31 35 35 34 34 30 28 30 28 37 35 32 33 34 30 31 34 29 25 34 32 33 35 37 37
15 14 17 14 15 16 17 15 15 16 17 14 20 17 17 22 23 28 32 34 35 34 30 28 29 36 34 34 40 31 25 24 25 27 24 24 23 30 32 32 33 37 37 37 37
15 16 17 16 15 16 16 18 20 21 20 17 19 22 22 25 26 29 31 33 33 32 29 27 31 31 30 29 28 23 20 21 22 16 27 26 27 31 34 36 37 36 35 39 38
19 19 19 18 20 21 22 22 23 23 21 18 19 24 26 27 27 28 29 28 29 30 28 27 28 22 17 20 18 17 18 19 15 18 22 28 31 32 34 35 35 34 34 37 38
19 20 21 21 23 24 24 24 24 22 23 24 24 29 30 30 28 26 24 23 27 25 23 23 21 14 14 14 16 18 20 22 17 23 26 30 30 32 34 34 34 35 36 36 35
Wind_Direction
268 274 278 283 287 286 278 267 257 245 235 232 225 210 193 184 184 183 189 175 128 119 131 157 160 154 172 187 173 170 182 167 113 84 84 45 346 329 331 329 329 331 333 319 312
268 276 280 286 284 282 271 260 246 229 219 212 188 176 169 174 178 182 178 139 116 125 139 163 181 154 182 187 190 176 173 165 114 133 104 36 314 298 311 314 313 331 314 333 10
277 281 284 285 292 286 262 231 213 195 191 178 166 155 153 172 170 177 160 136 125 131 130 154 183 182 201 201 193 185 187 158 181 196 202 216 252 273 282 290 307 312 313 325 326
280 273 297 310 318 274 214 186 173 165 169 159 147 136 145 161 173 165 164 149 148 140 147 156 219 209 207 208 206 212 208 185 237 291 252 289 284 271 255 274 285 308 320 322 319
238 325 341 347 274 168 162 156 149 152 154 142 136 133 143 154 167 166 171 172 170 148 113 51 278 277 256 228 221 222 236 247 264 292 206 51 330 331 325 322 309 311 310 309 312
150 13 57 61 110 131 137 138 142 148 143 137 134 132 133 136 147 172 185 184 200 130 80 106 7 35 234 335 186 50 30 3 357 314 311 288 312 323 315 326 324 311 310 311 314
123 41 97 85 104 127 133 135 140 140 137 136 137 139 137 150 118 153 168 181 190 162 111 113 153 157 142 102 88 77 69 45 22 301 318 299 304 317 316 316 307 306 315 311 322
169 105 130 119 121 126 131 136 141 139 142 146 144 145 140 134 143 131 117 102 47 182 162 166 144 139 124 144 115 118 92 68 46 301 272 291 296 309 306 307 309 307 309 314 326
186 165 142 154 133 130 132 139 141 145 149 150 154 156 149 133 149 152 137 123 167 206 225 208 186 183 175 177 189 147 345 136 138 174 242 269 289 294 301 308 309 305 309 314 311
185 184 166 148 150 150 148 148 145 156 162 155 145 142 148 138 154 132 134 156 218 176 170 172 182 197 201 213 48 132 332 50 183 219 251 264 276 292 301 303 303 305 306 305 309
179 169 172 173 159 157 160 165 163 160 164 158 154 140 183 206 163 161 151 194 197 171 181 193 201 226 263 330 303 230 260 281 278 274 275 288 295 297 298 296 296 293 297 301 305
200 203 197 192 186 185 188 188 173 190 193 197 199 163 243 208 163 220 165 168 197 203 205 227 230 341 338 288 273 264 253 259 268 270 281 289 288 287 289 290 291 291 301 301 307
203 204 203 195 188 193 195 199 206 201 220 209 190 228 221 200 164 196 178 182 227 240 232 291 321 282 275 282 270 276 290 273 260 253 261 280 284 283 289 289 290 299 301 298 301
201 208 208 201 191 192 177 204 207 201 175 155 171 190 154 175 170 196 189 223 260 250 157 247 264 273 292 286 285 284 285 295 277 271 263 257 265 275 276 284 291 296 301 305 303
198 211 213 204 188 168 186 145 215 168 156 152 142 152 165 9 297 288 302 239 255 255 191 230 252 277 287 293 307 283 313 281 307 292 271 247 263 272 276 282 293 296 298 298 305
240 232 222 208 196 175 175 182 206 156 140 162 85 25 316 299 211 105 345 272 262 249 227 235 255 271 296 295 302 296 297 281 303 305 283 268 272 270 273 280 289 293 295 298 305
249 240 232 223 212 199 166 188 196 177 163 36 41 17 344 315 330 1 348 247 254 248 255 252 276 288 296 300 304 305 303 295 303 313 273 285 273 267 273 283 293 298 298 306 304
241 234 228 227 227 210 183 200 200 196 183 183 235 343 2 323 313 301 295 296 300 322 275 280 282 306 315 311 313 308 309 310 315 315 309 300 294 278 278 285 298 303 302 301 306
241 232 234 239 234 223 207 219 228 199 206 191 218 233 207 198 243 270 279 287 285 294 294 299 281 302 318 310 309 310 309 309 307 303 300 303 299 281 278 291 300 313 309 308 311
240 236 244 247 244 232 222 232 236 230 237 223 213 238 235 238 231 241 261 279 286 285 283 298 276 287 296 291 287 287 294 294 294 296 302 304 291 293 304 313 305 315 322 324 310
246 248 250 252 242 231 226 243 247 258 247 237 245 238 240 242 258 265 255 272 285 293 299 301 298 296 299 293 296 294 285 286 292 290 291 286 293 306 293 304 309 312 319 323 313
250 255 250 243 235 234 238 243 253 252 242 250 238 242 252 261 263 274 277 276 285 293 298 304 304 302 312 302 304 308 299 294 291 286 285 278 304 314 301 315 317 319 311 316 315
252 256 252 249 242 240 248 254 266 259 239 245 250 246 255 266 272 274 280 286 290 293 301 307 298 301 295 304 292 294 291 284 284 287 293 300 303 321 309 311 316 317 318 316 315
254 253 254 252 250 246 248 252 256 258 255 249 253 262 266 271 270 276 283 291 296 300 303 294 292 293 304 308 302 307 304 304 299 295 301 319 308 311 321 326 321 317 317 315 315
246 237 237 235 238 238 243 248 250 250 255 257 266 273 280 283 285 288 291 293 294 294 294 291 289 298 302 296 299 310 318 314 302 280 311 317 319 320 320 318 317 316 314 313 313
245 242 237 237 238 239 243 247 253 265 269 268 271 282 282 284 286 288 287 288 288 289 297 301 300 310 301 296 305 320 321 312 323 317 319 319 318 315 314 318 320 320 317 319 323
243 242 241 234 236 244 249 255 264 272 277 283 287 286 287 286 285 286 282 284 283 291 300 300 307 316 312 310 322 320 317 310 329 322 321 322 319 320 323 324 326 324 322 322 320
Height
5893 5892 5893 5892 5891 5890 5889 5889 5889 5890 5891 5892 5893 5895 5896 5897 5898 5899 5901 5902 5902 5903 5904 5903 5903 5903 5904 5904 5905 5907 5908 5906 5904 5906 5905 5906 5905 5903 5903 5901 5899 5898 5896 5890 5892
5891 5891 5891 5889 5888 5888 5887 5887 5888 5888 5889 5891 5892 5894 5895 5896 5898 5899 5901 5901 5902 5903 5903 5903 5902 5902 5904 5904 5905 5907 5907 5905 5903 5907 5908 5909 5907 5903 5902 5900 5898 5898 5890 5889 5887
5890 5890 5889 5888 5887 5886 5886 5886 5886 5887 5889 5891 5892 5894 5895 5896 5899 5899 5900 5902 5902 5903 5903 5902 5901 5901 5902 5902 5904 5905 5905 5905 5906 5906 5907 5908 5908 5904 5899 5899 5897 5894 5886 5886 5884
5889 5888 5887 5886 5886 5886 5886 5886 5886 5887 5889 5891 5892 5894 5895 5897 5900 5899 5901 5902 5903 5903 5902 5903 5902 5901 5902 5902 5902 5903 5904 5905 5904 5904 5906 5905 5904 5902 5899 5896 5895 5890 5889 5887 5886
5888 5887 5886 5886 5886 5886 5886 5886 5887 5888 5890 5891 5893 5895 5896 5897 5898 5900 5901 5902 5903 5903 5903 5903 5903 5902 5902 5902 5903 5902 5901 5902 5902 5903 5904 5901 5895 5897 5897 5895 5893 5890 5888 5888 5884
5887 5886 5887 5887 5886 5886 5887 5887 5888 5889 5890 5892 5894 5896 5897 5898 5898 5899 5901 5902 5902 5903 5903 5904 5903 5903 5904 5903 5903 5903 5902 5903 5902 5902 5901 5897 5896 5896 5894 5893 5892 5891 5889 5886 5883
5886 5887 5887 5887 5886 5887 5887 5887 5889 5890 5892 5893 5895 5896 5897 5898 5898 5899 5900 5901 5902 5902 5901 5903 5903 5903 5902 5903 5903 5903 5903 5902 5902 5901 5900 5894 5891 5889 5888 5889 5889 5888 5886 5882 5879
5886 5887 5887 5888 5888 5888 5888 5888 5890 5891 5892 5893 5894 5896 5897 5898 5899 5899 5900 5901 5901 5902 5902 5901 5901 5902 5902 5903 5904 5902 5901 5900 5900 5899 5897 5893 5887 5886 5885 5884 5883 5882 5878 5874 5872
5886 5887 5887 5888 5888 5888 5889 5890 5891 5892 5893 5894 5895 5896 5897 5897 5899 5899 5899 5901 5902 5902 5902 5901 5900 5900 5900 5901 5902 5901 5899 5898 5896 5897 5894 5889 5885 5881 5880 5880 5879 5876 5873 5872 5871
5885 5886 5887 5887 5887 5888 5889 5890 5891 5892 5893 5894 5895 5898 5897 5897 5898 5899 5900 5901 5901 5901 5900 5899 5899 5899 5901 5903 5901 5899 5899 5897 5896 5895 5891 5890 5886 5882 5879 5877 5876 5874 5873 5870 5866
5885 5885 5886 5886 5887 5887 5889 5890 5892 5893 5893 5894 5895 5895 5896 5897 5897 5898 5899 5900 5900 5899 5898 5898 5899 5900 5900 5899 5898 5898 5898 5897 5897 5894 5888 5887 5884 5882 5878 5872 5869 5867 5867 5864 5861
5884 5884 5885 5886 5886 5887 5888 5890 5891 5893 5893 5893 5894 5894 5895 5896 5895 5897 5897 5899 5898 5897 5896 5897 5897 5897 5897 5897 5896 5896 5897 5896 5895 5893 5887 5884 5880 5877 5873 5868 5865 5861 5858 5856 5854
5883 5883 5884 5885 5886 5887 5888 5889 5889 5891 5892 5893 5892 5893 5895 5895 5895 5897 5897 5897 5897 5897 5895 5894 5895 5894 5894 5894 5893 5891 5892 5891 5894 5894 5886 5882 5874 5869 5867 5863 5859 5854 5853 5850 5846
5881 5882 5883 5884 5886 5886 5887 5888 5890 5890 5891 5892 5892 5893 5894 5894 5895 5895 5894 5896 5896 5897 5894 5894 5892 5892 5891 5890 5890 5889 5888 5889 5888 5886 5885 5876 5870 5865 5861 5857 5854 5851 5847 5844 5839
5881 5881 5882 5883 5884 5886 5888 5887 5890 5890 5891 5892 5891 5891 5893 5894 5894 5893 5894 5894 5895 5895 5894 5893 5890 5890 5887 5887 5886 5885 5885 5883 5881 5880 5875 5873 5870 5861 5856 5852 5849 5846 5842 5838 5832
5879 5880 5881 5882 5883 5885 5885 5888 5889 5890 5890 5891 5890 5890 5891 5891 5893 5892 5892 5893 5892 5892 5889 5890 5888 5888 5886 5884 5882 5881 5879 5877 5878 5874 5872 5867 5863 5857 5854 5849 5845 5841 5836 5831 5827
5877 5879 5880 5881 5882 5883 5884 5887 5888 5887 5889 5889 5889 5890 5890 5889 5888 5889 5891 5889 5890 5890 5888 5887 5886 5886 5884 5882 5880 5877 5873 5871 5871 5868 5867 5862 5857 5851 5849 5844 5840 5836 5831 5826 5820
5876 5877 5878 5879 5880 5883 5883 5885 5884 5886 5886 5886 5887 5888 5888 5889 5888 5889 5888 5886 5886 5888 5886 5885 5882 5883 5880 5876 5872 5871 5866 5862 5858 5857 5857 5854 5849 5845 5841 5839 5834 5828 5823 5818 5815
5874 5876 5877 5878 5879 5881 5882 5882 5882 5884 5885 5886 5886 5886 5886 5884 5887 5884 5885 5883 5883 5884 5884 5882 5880 5879 5875 5870 5867 5862 5858 5856 5854 5851 5847 5844 5840 5838 5837 5834 5828 5822 5817 5811 5804
5872 5874 5875 5876 5877 5879 5880 5877 5878 5880 5882 5883 5883 5884 5885 5882 5883 5882 5880 5880 5880 5879 5881 5879 5878 5876 5875 5869 5866 5860 5855 5852 5848 5844 5840 5835 5832 5831 5828 5824 5821 5816 5811 5804 5797
5869 5870 5871 5872 5874 5875 5875 5874 5875 5877 5880 5880 5880 5880 5880 5880 5879 5879 5880 5876 5874 5875 5875 5874 5873 5872 5869 5861 5855 5852 5850 5845 5842 5839 5833 5829 5827 5827 5823 5818 5813 5808 5804 5796 5790
5865 5864 5867 5867 5869 5869 5870 5870 5872 5875 5876 5877 5876 5876 5875 5876 5873 5873 5872 5874 5872 5870 5868 5867 5864 5861 5859 5854 5849 5844 5839 5836 5833 5834 5829 5824 5820 5816 5816 5811 5805 5801 5797 5791 5784
5860 5861 5862 5863 5866 5867 5867 5869 5870 5870 5872 5873 5872 5872 5873 5873 5873 5866 5867 5867 5867 5864 5863 5863 5856 5854 5852 5850 5846 5837 5832 5829 5827 5824 5822 5818 5816 5813 5810 5806 5800 5795 5790 5783 5778
5857 5858 5858 5861 5863 5864 5864 5866 5867 5866 5867 5870 5866 5869 5870 5868 5869 5865 5862 5861 5860 5859 5859 5854 5849 5846 5843 5839 5830 5830 5827 5826 5824 5821 5819 5815 5811 5808 5804 5797 5793 5788 5782 5777 5771
5852 5852 5853 5856 5858 5859 5860 5860 5860 5861 5862 5864 5864 5864 5865 5864 5864 5861 5860 5856 5853 5849 5848 5847 5843 5841 5837 5831 5826 5826 5824 5821 5819 5816 5814 5811 5807 5802 5797 5791 5787 5781 5775 5770 5763
5847 5848 5850 5852 5852 5853 5853 5854 5854 5855 5858 5859 5861 5859 5858 5858 5856 5854 5851 5848 5845 5842 5841 5838 5837 5835 5832 5826 5825 5823 5820 5817 5814 5812 5809 5806 5801 5796 5791 5786 5780 5775 5768 5761 5755
5842 5844 5844 5846 5846 5848 5849 5849 5849 5851 5851 5853 5853 5851 5849 5847 5847 5846 5844 5841 5837 5838 5837 5835 5832 5831 5828 5824 5823 5822 5818 5814 5810 5808 5805 5801 5796 5790 5783 5778 5773 5767 5760 5755 5749